Weather observations for the past three days for
Norfolk, Norfolk International Airport
Imperial (Metric)
Date Time (edt) Wind (mph) Vis. (mi.) Weather Sky Cond. Temperature (ºF) Relative Humidity Wind Chill (°F) Heat Index (°F) Pressure Precipitation (in)
Air Dwpt 6 hour altimeter (in) sea level (mb) 1 hr 3 hr 6 hr
Max. Min.
18 01:51 SW 12 G 23 10.00 A Few Clouds FEW017 FEW110 79 71.1 82.9 79 77% 82 29.92 1013.0
18 00:51 W 9 10.00 A Few Clouds FEW050 80.1 73.9 82% 85 29.9 1012.3
17 23:51 SW 17 10.00 A Few Clouds FEW015 81 75 82% 87 29.9 1012.3
17 22:51 SW 18 G 26 10.00 Partly Cloudy SCT016 81 75 82% 87 29.9 1012.5
17 21:51 SW 15 G 29 10.00 A Few Clouds FEW017 82 75 79% 89 29.9 1012.3
17 20:51 SW 15 10.00 Fair CLR 82 73.9 77% 88 29.88 1011.8
17 19:51 SW 17 G 25 10.00 Fair CLR 82.9 73 95 82 72% 89 29.86 1011.1 0.01
17 18:51 SW 18 G 28 10.00 Fair CLR 86 75.9 72% 96 29.85 1010.9
17 17:51 SW 14 10.00 Mostly Cloudy SCT035 SCT070 BKN095 82.9 77 82% 92 29.86 1011.0 0.01
17 16:51 SW 22 G 36 10.00 Thunderstorm Light Rain and Breezy SCT035 BKN045 89.1 73.9 61% 98 29.88 1011.6
17 15:51 SW 17 G 26 10.00 A Few Clouds FEW042 93.9 75 54% 106 29.86 1011.1
17 14:51 SW 14 G 25 10.00 Fair CLR 95 75 53% 107 29.89 1012.0
17 13:51 SW 15 G 24 10.00 Fair CLR 93 75 93.9 82 56% 104 29.9 1012.4
17 12:51 S 18 G 24 10.00 Fair CLR 91.9 75 58% 103 29.92 1013.0
17 11:51 W 13 10.00 Fair CLR 90 73 58% 98 29.93 1013.4
17 10:51 SW 17 G 23 10.00 Fair CLR 89.1 73.9 61% 98 29.94 1013.6
17 09:51 SW 17 10.00 Fair CLR 87.1 73 63% 95 29.94 1013.7
17 08:51 SW 13 10.00 Fair CLR 84 73 70% 90 29.95 1014.0
17 07:51 SW 18 G 26 10.00 Fair CLR 82 73 84 80.1 74% 87 29.93 1013.4
17 06:51 SW 14 10.00 Fair CLR 81 73 77% 86 29.92 1013.0
17 05:51 SW 15 10.00 Fair CLR 81 73 77% 86 29.9 1012.5
17 04:51 SW 15 10.00 Fair CLR 82 73 74% 87 29.89 1012.0
17 03:51 SW 14 10.00 Fair CLR 82.9 73 72% 89 29.88 1011.7
17 02:51 SW 14 10.00 Fair CLR 82.9 75 77% 90 29.88 1011.7
17 01:51 SW 15 10.00 Fair CLR 84 77 91 84 80% 94 29.9 1012.3
17 00:51 SW 15 10.00 Fair CLR 84.9 78.1 80% 97 29.9 1012.4
16 23:51 SW 16 G 25 10.00 Fair CLR 86 78.1 77% 98 29.9 1012.4
16 22:51 SW 14 10.00 Fair CLR 87.1 78.1 75% 100 29.89 1012.1
16 21:51 SW 15 10.00 Fair CLR 88 77 70% 100 29.88 1011.9
16 20:51 SW 13 10.00 Fair CLR 89.1 75 63% 99 29.88 1011.6
16 19:51 SW 17 G 23 10.00 Fair CLR 91 75 96.1 91 59% 102 29.88 1011.6
16 18:51 SW 14 G 25 10.00 Fair CLR 93 75 56% 104 29.86 1011.0
16 17:51 SW 16 G 26 10.00 Fair CLR 93.9 73.9 52% 104 29.85 1010.9
16 16:51 SW 21 G 26 10.00 Fair and Breezy CLR 95 75 53% 107 29.86 1011.0
16 15:51 SW 16 10.00 A Few Clouds FEW043 96.1 75.9 52% 110 29.86 1011.0
16 14:51 SW 20 G 26 10.00 Fair CLR 95 75 53% 107 29.88 1011.7
16 13:51 SW 13 G 25 10.00 Fair CLR 95 77 95 80.1 56% 110 29.89 1012.1
16 12:51 S 15 G 24 10.00 Fair CLR 93 77 60% 107 29.9 1012.5
16 11:51 SW 15 10.00 Fair CLR 90 75.9 63% 102 29.92 1013.2
16 10:51 SW 13 10.00 Fair CLR 89.1 75 63% 99 29.92 1013.1
16 09:51 SW 12 10.00 Fair CLR 84 73.9 72% 91 29.92 1013.2
16 08:51 SW 14 G 22 10.00 Fair CLR 82.9 73.9 74% 89 29.93 1013.4
16 07:51 SW 15 10.00 Fair CLR 80.1 72 84 79 76% 84 29.92 1013.2
16 06:51 SW 15 10.00 Fair CLR 79 72 79% 82 29.92 1013.1
16 05:51 SW 10 10.00 Fair CLR 80.1 71.1 74% 84 29.92 1013.0
16 04:51 SW 13 10.00 Fair CLR 80.1 71.1 74% 84 29.9 1012.6
16 03:51 SW 15 10.00 Fair CLR 81 71.1 72% 85 29.89 1012.1
16 02:51 SW 12 10.00 Fair CLR 82.9 72 70% 88 29.88 1011.7
16 01:51 SW 12 10.00 Fair CLR 82.9 73.9 91.9 82.9 74% 89 29.89 1012.0
16 00:51 SW 14 10.00 Fair CLR 84 75 74% 92 29.89 1012.2
15 23:51 SW 14 10.00 Fair CLR 86 75 70% 95 29.9 1012.4
15 22:51 SW 12 10.00 Fair CLR 87.1 73.9 65% 95 29.91 1012.6
15 21:51 S 12 10.00 Fair CLR 87.1 75 67% 97 29.9 1012.5
15 20:51 S 14 G 20 10.00 Fair CLR 90 72 56% 97 29.9 1012.6
15 19:51 S 12 10.00 Fair CLR 91.9 72 98.1 91.9 52% 100 29.9 1012.3
15 18:51 S 13 10.00 Fair CLR 93.9 70 46% 100 29.88 1011.7
15 17:51 S 10 10.00 Fair CLR 95 69.1 43% 101 29.88 1011.9
15 16:51 Vrbl 3 10.00 Fair CLR 96.1 66.9 39% 100 29.9 1012.4
15 15:51 NW 5 10.00 Fair CLR 97 64.9 35% 100 29.91 1012.8
15 14:51 W 8 10.00 Fair CLR 96.1 64 35% 98 29.93 1013.6
15 13:51 W 6 10.00 Fair CLR 93.9 69.1 95 82 44% 99 29.96 1014.3
15 12:51 Vrbl 3 10.00 Fair CLR 93 68 44% 97 29.97 1014.7
15 11:51 W 7 10.00 Fair CLR 91 69.1 49% 96 29.98 1015.0
15 10:51 Vrbl 7 10.00 Fair CLR 89.1 66.9 48% 92 29.98 1015.0
15 09:51 NW 6 10.00 Fair CLR 87.1 68 53% 91 29.98 1015.3
Date Time (edt) Wind (mph) Vis. (mi.) Weather Sky Cond. Air Dwpt Max. Min. Relative Humidity Wind Chill (°F) Heat Index (°F) altimeter (in) sea level (mb) 1 hr 3 hr 6 hr
6 hour
Temperature (ºF) Pressure Precipitation (in)